Weather reports worldwide

Advertisment
Medina De Pomar, Spain (8063): temperature & dewpoint: 16.07.2019 02:00:00 - 22.07.2019 02:00:00 (CEST)Medina De Pomar, Spain (8063): wind speed & gusts: 16.07.2019 02:00:00 - 22.07.2019 02:00:00 (CEST)Medina De Pomar, Spain (8063): wind direction: 16.07.2019 02:00:00 - 22.07.2019 02:00:00 (CEST)Medina De Pomar, Spain (8063): reduced air pressure: 16.07.2019 02:00:00 - 22.07.2019 02:00:00 (CEST)Medina De Pomar, Spain (8063): visibility: 16.07.2019 02:00:00 - 22.07.2019 02:00:00 (CEST)Medina De Pomar, Spain (8063): sunshine duration: 16.07.2019 02:00:00 - 22.07.2019 02:00:00 (CEST)Medina De Pomar, Spain (8063): precipitation: 16.07.2019 02:00:00 - 22.07.2019 02:00:00 (CEST)
Date & Time tt [°C] td [°C] ff [km/h] ff [kn] fx [km/h] fx [kn] dd ppp [hPa] vv [km] sd [min] rr [mm]
22.07.2019 02:00:00 - - - - - - - - - - -
22.07.2019 01:00:00 - - - - - - - - - - -
22.07.2019 00:00:00 - - - - - - - - - - -
21.07.2019 23:00:00 - - - - - - - - - - -
21.07.2019 22:00:00 - - - - - - - - - - -
21.07.2019 21:00:00 - - - - - - - - - - -
21.07.2019 20:00:00 22,5 16,6 12 7 40 21 NNE 1020,5 20 60 -
21.07.2019 19:00:00 - - - - - - - - - - -
21.07.2019 18:00:00 27,5 16,7 13 7 27 15 NNE 1018,3 20 60 0,0
21.07.2019 17:00:00 - - - - - - - - - - -
21.07.2019 16:00:00 - - - - - - - - - - -
21.07.2019 15:00:00 - - - - - - - - - - -
21.07.2019 14:00:00 - - - - - - - - - - -
21.07.2019 13:00:00 21,3 15,3 9 5 18 10 NNE 1021,9 20 0 0,0
21.07.2019 12:00:00 - - - - - - - - - - -
21.07.2019 11:00:00 - - - - - - - - - - -
21.07.2019 10:00:00 19,3 15,0 9 5 19 10 NE 1021,5 20 0 0,0
21.07.2019 09:00:00 - - - - - - - - - - -
21.07.2019 08:00:00 18,4 14,3 6 4 12 6 NE 1021,0 20 0 -
21.07.2019 07:00:00 - - - - - - - - - - -
21.07.2019 06:00:00 - - - - - - - - - - -
21.07.2019 05:00:00 - - - - - - - - - - -
21.07.2019 04:00:00 17,8 14,1 5 3 13 7 ENE 1021,4 20 0 0,0
21.07.2019 03:00:00 - - - - - - - - - - -
21.07.2019 02:00:00 - - - - - - - - - - -
21.07.2019 01:00:00 18,6 14,7 10 5 27 14 NNE 1021,8 20 0 0,0
21.07.2019 00:00:00 19,0 14,7 8 4 21 11 NNE 1021,1 20 0 0,0
20.07.2019 23:00:00 - - - - - - - - - - -
20.07.2019 22:00:00 - - - - - - - - - - -
20.07.2019 21:00:00 19,5 14,7 14 8 37 20 NE 1019,3 20 0 0,0
20.07.2019 20:00:00 - - - - - - - - - - -
20.07.2019 19:00:00 - - - - - - - - - - -
20.07.2019 18:00:00 - - - - - - - - - - -
20.07.2019 17:00:00 - - - - - - - - - - -
20.07.2019 16:00:00 - - - - - - - - - - -
20.07.2019 15:00:00 27,8 13,4 14 8 34 18 N 1014,4 20 60 0,0
20.07.2019 14:00:00 - - - - - - - - - - -
20.07.2019 13:00:00 27,2 12,0 9 5 22 12 NE 1014,4 20 60 0,0
20.07.2019 12:00:00 - - - - - - - - - - -
20.07.2019 11:00:00 - - - - - - - - - - -
20.07.2019 10:00:00 - - - - - - - - - - -
20.07.2019 09:00:00 - - - - - - - - - - -
20.07.2019 08:00:00 15,1 13,0 3 1 4 2 NE 1016,3 20 19 -
20.07.2019 07:00:00 - - - - - - - - - - -
20.07.2019 06:00:00 - - - - - - - - - - -
20.07.2019 05:00:00 - - - - - - - - - - -
20.07.2019 04:00:00 - - - - - - - - - - -
20.07.2019 03:00:00 - - - - - - - - - - -
20.07.2019 02:00:00 19,3 15,0 3 2 9 5 N 1014,1 20 0 -
20.07.2019 01:00:00 - - - - - - - - - - -
20.07.2019 00:00:00 - - - - - - - - - - -
19.07.2019 23:00:00 - - - - - - - - - - -
19.07.2019 22:00:00 - - - - - - - - - - -
19.07.2019 21:00:00 - - - - - - - - - - -
19.07.2019 20:00:00 30,2 12,1 14 8 36 19 NNE 1008,8 20 60 -
19.07.2019 19:00:00 32,3 10,9 16 9 36 19 NE 1008,1 20 50 0,0
19.07.2019 18:00:00 34,1 10,6 13 7 35 19 NE 1008,0 20 56 0,0
19.07.2019 17:00:00 34,8 7,0 8 4 18 10 NW 1008,0 20 60 0,0
19.07.2019 16:00:00 - - - - - - - - - - -
19.07.2019 15:00:00 32,6 8,8 3 2 14 7 NE 1010,4 9 60 0,0
19.07.2019 14:00:00 30,3 9,2 4 2 16 8 SE 1011,8 20 60 -
19.07.2019 13:00:00 - - - - - - - - - - -
19.07.2019 12:00:00 - - - - - - - - - - -
19.07.2019 11:00:00 20,1 11,8 3 2 9 5 SSW 1016,6 20 60 0,0
19.07.2019 10:00:00 - - - - - - - - - - -
19.07.2019 09:00:00 - - - - - - - - - - -
19.07.2019 08:00:00 10,9 9,8 3 1 5 3 NE 1019,7 0,4 0 -
19.07.2019 07:00:00 - - - - - - - - - - -
19.07.2019 06:00:00 10,6 9,2 4 2 8 5 NNE 1020,3 16 0 0,0
19.07.2019 05:00:00 - - - - - - - - - - -
19.07.2019 04:00:00 - - - - - - - - - - -
19.07.2019 03:00:00 - - - - - - - - - - -
19.07.2019 02:00:00 - - - - - - - - - - -
19.07.2019 01:00:00 - - - - - - - - - - -
19.07.2019 00:00:00 16,8 13,2 3 2 17 9 N 1019,5 20 0 0,0
18.07.2019 23:00:00 - - - - - - - - - - -
18.07.2019 22:00:00 - - - - - - - - - - -
18.07.2019 21:00:00 - - - - - - - - - - -
18.07.2019 20:00:00 - - - - - - - - - - -
18.07.2019 19:00:00 24,9 13,2 13 7 29 16 NNE 1015,8 20 60 0,0
18.07.2019 18:00:00 26,0 12,8 15 8 32 17 NNE 1015,3 20 60 0,0
18.07.2019 17:00:00 - - - - - - - - - - -
18.07.2019 16:00:00 - - - - - - - - - - -
18.07.2019 15:00:00 25,5 9,3 6 3 24 13 N 1016,3 20 60 0,0
18.07.2019 14:00:00 - - - - - - - - - - -
18.07.2019 13:00:00 23,2 9,2 5 3 23 12 NE 1017,4 20 60 0,0
18.07.2019 12:00:00 20,9 9,8 8 4 18 10 NNE 1018,5 20 60 0,0
18.07.2019 11:00:00 19,5 10,2 6 3 - - N 1018,7 20 - -
18.07.2019 10:00:00 - - - - - - - - - - -
18.07.2019 09:00:00 14,9 10,5 1 1 5 3 E 1020,1 20 57 0,0
18.07.2019 08:00:00 - - - - - - - - - - -
18.07.2019 07:00:00 - - - - - - - - - - -
18.07.2019 06:00:00 12,7 10,4 2 1 8 4 W 1020,2 17 0 0,0
18.07.2019 05:00:00 14,6 11,2 2 1 - - NNE 1019,6 20 - -
18.07.2019 04:00:00 16,2 12,0 5 3 12 6 NE 1019,3 20 0 0,0
18.07.2019 03:00:00 16,6 12,1 5 3 16 9 NNE 1019,6 20 0 0,0
18.07.2019 02:00:00 - - - - - - - - - - -
18.07.2019 01:00:00 16,9 12,4 6 3 18 10 NNE 1019,9 20 0 0,0
18.07.2019 00:00:00 - - - - - - - - - - -
17.07.2019 23:00:00 - - - - - - - - - - -
17.07.2019 22:00:00 18,1 12,7 9 5 19 10 NE 1018,8 20 0 0,0
17.07.2019 21:00:00 - - - - - - - - - - -
17.07.2019 20:00:00 - - - - - - - - - - -
17.07.2019 19:00:00 19,5 13,3 15 8 31 17 NE 1017,4 20 0 0,0
17.07.2019 18:00:00 - - - - - - - - - - -
17.07.2019 17:00:00 - - - - - - - - - - -
17.07.2019 16:00:00 - - - - - - - - - - -
17.07.2019 15:00:00 22,5 13,3 16 8 38 21 NNE 1016,7 20 30 0,0
17.07.2019 14:00:00 - - - - - - - - - - -
17.07.2019 13:00:00 21,8 13,0 11 6 30 16 NNE 1016,7 20 48 0,2
17.07.2019 12:00:00 - - - - - - - - - - -
17.07.2019 11:00:00 - - - - - - - - - - -
17.07.2019 10:00:00 18,1 12,5 2 1 8 4 WSW 1017,5 16 60 0,0
17.07.2019 09:00:00 - - - - - - - - - - -
17.07.2019 08:00:00 - - - - - - - - - - -
17.07.2019 07:00:00 13,4 11,8 1 1 8 4 NNE 1018,2 17 0 0,0
17.07.2019 06:00:00 - - - - - - - - - - -
17.07.2019 05:00:00 14,3 12,3 2 1 8 5 NW 1018,3 20 0 0,0
17.07.2019 04:00:00 - - - - - - - - - - -
17.07.2019 03:00:00 - - - - - - - - - - -
17.07.2019 02:00:00 - - - - - - - - - - -
17.07.2019 01:00:00 16,8 12,7 4 2 24 13 N 1018,8 20 0 0,0
17.07.2019 00:00:00 - - - - - - - - - - -
16.07.2019 23:00:00 - - - - - - - - - - -
16.07.2019 22:00:00 19,2 10,5 9 5 24 13 NE 1017,2 20 0 0,0
16.07.2019 21:00:00 - - - - - - - - - - -
16.07.2019 20:00:00 - - - - - - - - - - -
16.07.2019 19:00:00 - - - - - - - - - - -
16.07.2019 18:00:00 - - - - - - - - - - -
16.07.2019 17:00:00 25,9 10,0 13 7 36 19 NNE 1014,8 20 60 0,0
16.07.2019 16:00:00 - - - - - - - - - - -
16.07.2019 15:00:00 - - - - - - - - - - -
16.07.2019 14:00:00 - - - - - - - - - - -
16.07.2019 13:00:00 - - - - - - - - - - -
16.07.2019 12:00:00 - - - - - - - - - - -
16.07.2019 11:00:00 20,1 6,1 5 3 11 6 WNW 1017,9 20 60 0,0
16.07.2019 10:00:00 - - - - - - - - - - -
16.07.2019 09:00:00 - - - - - - - - - - -
16.07.2019 08:00:00 9,2 6,8 2 1 7 4 ENE 1020,8 20 21 -
16.07.2019 07:00:00 8,4 6,4 5 3 8 5 NNE 1021,0 20 0 0,0
16.07.2019 06:00:00 9,3 7,1 2 1 10 5 NW 1020,5 20 0 0,0
16.07.2019 05:00:00 - - - - - - - - - - -
16.07.2019 04:00:00 10,6 8,0 4 2 10 5 NNE 1020,5 20 0 0,0
16.07.2019 03:00:00 11,6 8,4 2 1 9 5 NNE 1020,6 20 0 0,0
16.07.2019 02:00:00 - - - - - - - - - - -

tt = temperature
td = dewpoint
ff = wind speed
fx = gusts
dd = wind direction
ppp = reduced air pressure
vv = visibility
sd = sunshine duration
rr = precipitation

Next stations